Tacoma, WA
on Tuesday, December 11, 2012

Tuesday
Previous Day Next Day
Daily Summary
 ActualAverage (KSEA)Record (KSEA)
Temperature
Mean Temperature °F 41°F  
Max Temperature 46°F 46°F 56°F (1959)
Min Temperature 35°F 35°F 21°F (2009)
Degree Days
Heating Degree Days 24 24  
Month to date heating degree days 260  
Since 1 July heating degree days 1443  
Cooling Degree Days 0 0  
Month to date cooling degree days 0  
Year to date cooling degree days 189  
Moisture
Dew Point 39°F   
Average Humidity 97    
Maximum Humidity 100    
Minimum Humidity 81    
Precipitation
Precipitation 0.17 in 0.17 in 1.42 in (2010)
Month to date precipitation 2.04  
Year to date precipitation 34.18  
Snow
Snow 0.00 in in 4.20 in (1972)
Month to date snowfall  
Since 1 July snowfall  
Snow Depth in   
Wind
Wind Speed 5 mph   
Max Wind Speed 13 mph   
Max Gust Speed mph   
Visibility 6 miles   
Events Fog , Rain   

Key: T is trace of precipitation, MM is missing value
Source: NWS Daily Summary
Time(PST)TemperatureDew PointHumidity Pressure Visibility Wind DirectionWind SpeedGust SpeedPrecipitationEvents Conditions
12:03 AM 37.4°F 37.4°F 100% 30.11 in 1.2 miles South 2.3 mph - N/A   Scattered Clouds
12:08 AM 39.2°F 37.4°F 93% 30.10 in 1.0 miles South 3.5 mph - N/A   Mostly Cloudy
12:13 AM 37.4°F 37.4°F 100% 30.10 in 0.8 miles SSE 3.5 mph - N/A   Mostly Cloudy
12:18 AM 35.6°F 35.6°F 100% 30.09 in 0.5 miles South 3.5 mph - N/A Fog Fog
12:23 AM 35.6°F 35.6°F 100% 30.09 in 0.8 miles SSW 3.5 mph - N/A   Mostly Cloudy
12:28 AM 37.4°F 37.4°F 100% 30.09 in 1.2 miles West 4.6 mph - N/A   Overcast
12:33 AM 39.2°F 39.2°F 100% 30.08 in 4.0 miles SW 2.3 mph - N/A   Overcast
12:58 AM 38.1°F 37.8°F 99% 30.07 in 5.0 miles SSE 3.5 mph - N/A   Overcast
1:08 AM 37.4°F 37.4°F 100% 30.04 in 1.2 miles ESE 5.8 mph - N/A   Overcast
1:13 AM 37.4°F 37.4°F 100% 30.03 in 0.8 miles ESE 3.5 mph - N/A   Mostly Cloudy
1:18 AM 37.4°F 37.4°F 100% 30.03 in 0.5 miles East 3.5 mph - N/A Fog Fog
1:23 AM 37.4°F 37.4°F 100% 30.03 in 0.5 miles East 1.2 mph - N/A Fog Fog
1:48 AM 37.4°F 37.4°F 100% 30.02 in 0.5 miles Calm Calm - N/A Fog Fog
1:53 AM 37.4°F 37.4°F 100% 30.01 in 0.8 miles East 2.3 mph - N/A   Mist
1:58 AM 37.0°F 36.9°F 99% 30.03 in 1.0 miles ESE 1.2 mph - N/A   Mist
2:13 AM 37.4°F 37.4°F 100% 30.00 in 0.8 miles SE 2.3 mph - N/A   Mist
2:18 AM 37.4°F 37.4°F 100% 30.00 in 0.5 miles SSE 2.3 mph - N/A Fog Fog
2:23 AM 37.4°F 35.6°F 93% 29.99 in 0.8 miles SSE 3.5 mph - N/A   Mist
2:28 AM 35.6°F 35.6°F 100% 29.99 in 0.8 miles South 3.5 mph - N/A   Mist
2:33 AM 35.6°F 35.6°F 100% 29.98 in 1.0 miles South 3.5 mph - N/A   Mist
2:38 AM 35.6°F 35.6°F 100% 29.98 in 1.0 miles South 3.5 mph - N/A   Clear
2:43 AM 35.6°F 35.6°F 100% 29.98 in 1.8 miles SSW 3.5 mph - N/A   Clear
2:48 AM 35.6°F 35.6°F 100% 29.97 in 3.0 miles South 3.5 mph - N/A   Clear
2:58 AM 35.6°F 35.6°F 100% 29.98 in 1.8 miles SSE 4.6 mph - N/A   Clear
3:03 AM 35.6°F 35.6°F 100% 29.96 in 1.5 miles SSE 3.5 mph - N/A   Clear
3:08 AM 35.6°F 35.6°F 100% 29.95 in 2.5 miles SSE 3.5 mph - N/A   Clear
3:13 AM 35.6°F 35.6°F 100% 29.95 in 5.0 miles South 2.3 mph - N/A   Partly Cloudy
3:15 AM 37.4°F 35.6°F 93% 29.95 in 7.0 miles South 2.3 mph - N/A   Partly Cloudy
3:30 AM 37.4°F 35.6°F 93% 29.95 in 5.0 miles SE 2.3 mph - N/A   Mostly Cloudy
3:31 AM 37.4°F 35.6°F 93% 29.95 in 4.0 miles SE 2.3 mph - N/A   Mostly Cloudy
3:36 AM 35.6°F 35.6°F 100% 29.95 in 4.0 miles SE 3.5 mph - N/A   Mostly Cloudy
3:56 AM 39.2°F 39.2°F 100% 29.94 in 10.0 miles SW 6.9 mph - N/A   Mostly Cloudy
3:58 AM 39.2°F 39.2°F 100% 29.96 in 10.0 miles SW 6.9 mph - N/A   Mostly Cloudy
4:13 AM 41.0°F 39.2°F 93% 29.94 in 10.0 miles WSW 9.2 mph - N/A   Mostly Cloudy
4:23 AM 41.0°F 41.0°F 100% 29.94 in 10.0 miles SW 10.4 mph - N/A   Mostly Cloudy
4:24 AM 41.0°F 41.0°F 100% 29.94 in 10.0 miles SW 10.4 mph - N/A   Overcast
4:34 AM 41.0°F 41.0°F 100% 29.93 in 10.0 miles SSW 9.2 mph - N/A   Overcast
4:44 AM 41.0°F 41.0°F 100% 29.92 in 10.0 miles SSW 10.4 mph - N/A   Overcast
4:58 AM 40.8°F 40.5°F 99% 29.92 in 10.0 miles South 9.2 mph - N/A   Mostly Cloudy
5:23 AM 41.0°F 41.0°F 100% 29.89 in 10.0 miles South 9.2 mph - N/A   Mostly Cloudy
5:58 AM 41.2°F 40.8°F 99% 29.89 in 10.0 miles SSW 9.2 mph - N/A   Overcast
6:48 AM 41.0°F 41.0°F 100% 29.85 in 10.0 miles South 8.1 mph - N/A   Overcast
6:58 AM 41.2°F 40.8°F 99% 29.86 in 10.0 miles South 9.2 mph - N/A   Overcast
7:58 AM 41.9°F 41.2°F 97% 29.80 in 10.0 miles South 10.4 mph - 0.01 in   Scattered Clouds
8:58 AM 42.4°F 41.2°F 95% 29.78 in 10.0 miles South 8.1 mph - N/A   Overcast
9:58 AM 43.0°F 41.4°F 94% 29.76 in 10.0 miles South 6.9 mph - N/A   Overcast
10:40 AM 44.6°F 41.0°F 87% 29.72 in 10.0 miles South 11.5 mph - N/A Rain Light Rain
10:57 AM 44.6°F 41.0°F 87% 29.71 in 10.0 miles South 10.4 mph - N/A   Overcast
10:58 AM 44.4°F 41.4°F 89% 29.73 in 10.0 miles South 10.4 mph - 0.00 in   Overcast
11:58 AM 45.5°F 41.9°F 87% 29.68 in 10.0 miles South 8.1 mph - 0.00 in   Overcast
12:58 PM 46.0°F 41.2°F 83% 29.65 in 10.0 miles South 9.2 mph - N/A   Overcast
1:11 PM 46.4°F 41.0°F 81% 29.62 in 10.0 miles South 8.1 mph - N/A Rain Light Rain
1:58 PM 43.7°F 42.6°F 96% 29.62 in 6.0 miles SSE 9.2 mph - 0.07 in Rain Light Rain
2:58 PM 43.5°F 42.4°F 96% 29.58 in 10.0 miles SSE 9.2 mph - 0.08 in Rain Light Rain
3:11 PM 42.8°F 42.8°F 100% 29.55 in 10.0 miles SSE 6.9 mph - N/A   Overcast
3:58 PM 42.8°F 42.6°F 99% 29.57 in 10.0 miles South 5.8 mph - 0.00 in   Overcast
4:01 PM 42.8°F 42.8°F 100% 29.55 in 10.0 miles South 4.6 mph - N/A Rain Light Rain
4:11 PM 42.8°F 42.8°F 100% 29.56 in 10.0 miles South 5.8 mph - N/A Rain Light Rain
4:14 PM 42.8°F 42.8°F 100% 29.56 in 10.0 miles South 5.8 mph - N/A   Overcast
4:24 PM 42.8°F 42.8°F 100% 29.56 in 10.0 miles South 5.8 mph - N/A   Overcast
4:29 PM 42.8°F 41.0°F 93% 29.56 in 10.0 miles South 6.9 mph - N/A   Overcast
4:34 PM 42.8°F 41.0°F 93% 29.56 in 10.0 miles South 8.1 mph - N/A   Overcast
4:58 PM 42.6°F 40.5°F 92% 29.58 in 10.0 miles South 12.7 mph - 0.00 in   Overcast
5:58 PM 42.3°F 39.6°F 90% 29.59 in 10.0 miles South 11.5 mph - 0.01 in   Overcast
6:58 PM 41.0°F 38.8°F 92% 29.58 in 10.0 miles South 10.4 mph - N/A   Scattered Clouds
7:58 PM 41.9°F 39.9°F 93% 29.60 in 10.0 miles SSW 8.1 mph - N/A   Overcast
8:58 PM 41.2°F 39.9°F 95% 29.61 in 10.0 miles South 5.8 mph - N/A   Overcast
9:26 PM 41.0°F 39.2°F 93% 29.60 in 10.0 miles South 4.6 mph - N/A Rain Light Rain
9:35 PM 41.0°F 41.0°F 100% 29.59 in 10.0 miles South 6.9 mph - N/A   Overcast
9:58 PM 41.9°F 40.3°F 94% 29.62 in 10.0 miles South 8.1 mph - 0.00 in   Mostly Cloudy
10:53 PM 41.0°F 41.0°F 100% 29.61 in 10.0 miles South 9.2 mph - N/A   Overcast
10:58 PM 41.4°F 40.5°F 97% 29.63 in 10.0 miles South 9.2 mph - N/A   Overcast
11:58 PM 41.2°F 40.5°F 97% 29.64 in 10.0 miles South 10.4 mph - N/A   Mostly Cloudy
Moon Phase
Dec. 11 Dec. 13 Dec. 20 Dec. 28 Jan. 04
Sunrise:07:46 AM (PST) Moon Rise:05:44 AM (PST)12/11
Sunset:04:20 PM (PST) Moon Set:03:06 PM (PST)12/11

Copyright © 2014 The Weather Underground, Inc.